Regional Weather Roundup
Issued by NWS

Home | Current Version | Previous Version | Text Only | Print | Product List | Glossary Off
Versions: 1 2 3 4 5 6 7 8 9 10 11 12 13 14 15 16 17 18 19 20 21 22 23 24 25 26 27 28 29 30 31 32 33 34 35 36 37 38 39 40 41 42 43 44 45 46 47 48 49 50

324
ASUS43 KDTX 240801
RWRMI
MICHIGAN HOURLY REGIONAL WEATHER ROUNDUP
NATIONAL WEATHER SERVICE DETROIT/PONTIAC MI
400 AM EDT TUE APR 24 2018

NOTE: "FAIR" INDICATES FEW OR NO CLOUDS BELOW 12,000 FEET WITH NO
SIGNIFICANT WEATHER AND/OR OBSTRUCTION TO VISIBILITY.

MIZ047>049-052>055-059>063-066>070-074>076-081>083-240900-
SOUTHEAST LOWER MICHIGAN

CITY           SKY/WX    TMP DP  RH WIND       PRES   REMARKS
ADRIAN         CLOUDY    54  45  71 SE5       30.12S
ALMA           MOCLDY    54  48  80 S9        30.13F
ANN ARBOR      CLOUDY    56  45  66 E6        30.12F
BAD AXE        FAIR      51  39  64 SW3       30.15S
CARO           CLOUDY    55  43  63 SW5       30.14R
DETROIT CITY   CLOUDY    53  44  71 SE3       30.14S
DETROIT        CLOUDY    55  44  66 NE3       30.14S
FLINT          MOCLDY    52  44  74 SE3       30.13F
GROSSE ILE     CLOUDY    52  45  78 NE3       30.12S
HILLSDALE      CLOUDY    52  45  76 SE8       30.09F
HOWELL         DRIZZLE   52  45  77 CALM      30.12F

CITY           SKY/WX    TMP DP  RH WIND       PRES   REMARKS
JACKSON        CLOUDY    54  47  77 NE6       30.10F
LAMBERTVILLE   CLOUDY    58  44  60 E5        30.11F
LANSING        CLOUDY    55  47  74 S6        30.12F
LAPEER         CLOUDY    55  43  65 CALM      30.15S
MASON          CLOUDY    54  45  73 CALM      30.11F
MONROE         DRIZZLE   53  44  71 CALM      30.13R
PONTIAC        CLOUDY    53  45  74 CALM      30.12F
PORT HOPE        N/A     47  42  83 SE3       30.12S
PORT HURON     CLOUDY    50  43  76 CALM      30.15S
TRI CITIES     CLOUDY    47  42  83 S5        30.14S
MIDLAND        MOCLDY    46  39  76 CALM      30.13S
TROY           CLOUDY    56  43  60 CALM      30.15S
SAGINAW HB     CLOUDY    54  45  71 SW8       30.13S
$$
MIZ043>046-050>051-056>058-064>065-071>073-077>080-240900-
SOUTHWEST LOWER MICHIGAN

CITY           SKY/WX    TMP DP  RH WIND       PRES   REMARKS
BATTLE CREEK   CLOUDY    52  47  83 E5        30.09F
BENTON HARBOR  CLOUDY    54  46  74 E6        30.07F
BIG RAPIDS     FAIR      48  39  69 CALM      30.10F
COLDWATER      CLOUDY    52  48  87 E6        30.08F
FREMONT        MOCLDY    55  42  60 CALM      30.09S
HOLLAND        MOCLDY    54  46  74 SE3       30.10S
GRAND RAPIDS   FAIR      54  45  71 SE6       30.10F
IONIA          CLOUDY    53  46  75 SE6       30.11F
KALAMAZOO      CLOUDY    54  46  74 E3        30.09F
LUDINGTON      FAIR      43  37  79 CALM      30.09S
MARSHALL       CLOUDY    51  48  91 E3        30.09F
MOUNT PLEASANT FAIR      50  41  72 CALM      30.11F
MUSKEGON       MOCLDY    52  45  77 CALM      30.10S
SOUTH HAVEN    MOCLDY    55  46  74 SE3       30.07F
$$
MIZ016>042-240900-
NORTHERN LOWER MICHIGAN

CITY           SKY/WX    TMP DP  RH WIND       PRES   REMARKS
ALPENA         FAIR      34  29  82 CALM      30.13F
BEAVER ISLAND  FAIR      33  29  85 CALM      30.11F
CADILLAC       FAIR      39  32  77 NW3       30.10S
CHARLEVOIX     FAIR      39  29  65 CALM      30.14S
FRANKFORT      FAIR      38  31  76 CALM      30.11S
GAYLORD        FAIR      44  29  55 CALM      30.11F
HARBOR SPRINGS FAIR      36  31  83 NE6       30.12S WCI  31
HOUGHTON LAKE  FAIR      42  35  76 CALM      30.12F
MANISTEE       FAIR      42  31  64 E5        30.10S
OSCODA         FAIR      36  28  72 CALM      30.13S
PELLSTON       FAIR      31  26  82 CALM      30.13S
ROGERS CITY    FAIR      33  29  85 CALM      30.14S
TRAVERSE CITY  FAIR      39  32  76 CALM      30.10F
$$
MIZ007>008-015-240900-
EASTERN UPPER MICHIGAN

CITY           SKY/WX    TMP DP  RH WIND       PRES   REMARKS
KINROSS        FAIR      37  23  56 E3        30.13F
MACKINAC ISLAN FAIR      37  30  78 CALM      30.12S
NEWBERRY       FAIR      38  25  60 CALM      30.11F
S. S. MARIE    FAIR      39  25  57 E5        30.13F
MUNISING         N/A     37  27  67 CALM      30.10F
$$
MIZ004>006-011>014-085-240900-
CENTRAL UPPER MICHIGAN

CITY           SKY/WX    TMP DP  RH WIND       PRES   REMARKS
MANISTIQUE     FAIR      31  27  84 CALM      30.11F
ESCANABA       FAIR      28  25  88 CALM      30.12F
MENOMINEE      FAIR      33  28  81 NW3       30.12F
SAWYER-GWINN   FAIR      32  24  71 CALM      30.11F
$$
MIZ001>003-009>011-084-240900-
WESTERN UPPER MICHIGAN

CITY           SKY/WX    TMP DP  RH WIND       PRES   REMARKS
IRON MOUNTAIN  FAIR      34  26  72 CALM      30.10F
HOUGHTON       CLOUDY    46  28  49 NW12      30.10S
COPPER HARBOR    N/A     41  29  62 N6        30.12R
IRONWOOD       FAIR      34  29  82 CALM      30.12F
$$

ABBREVIATIONS USED IN REMARKS
   TC - TEMPERATURE IN CELSIUS
  WCI - WIND CHILL INDEX
   HX - HEAT INDEX
  VSB - VISIBILITY





USA.gov is the U.S. government's official web portal to all federal, state and local government web resources and services.